Regional Weather Roundup
Issued by NWS

Home | Current Version | Previous Version | Graphics & Text | Print | Product List | Glossary On
Versions: 1 2 3 4 5 6 7 8 9 10 11 12 13 14 15 16 17 18 19 20 21 22 23 24 25 26 27 28 29 30 31 32 33 34 35 36 37 38 39 40 41 42 43 44 45 46 47 48 49 50
246
ASUS43 KFSD 191002
RWRSD

WEATHER ROUNDUP FOR SOUTH DAKOTA
NATIONAL WEATHER SERVICE SIOUX FALLS SD
400 AM CST THU JAN 19 2017

NOTE: "FAIR" INDICATES FEW OR NO CLOUDS BELOW 12,000 FEET WITH NO
SIGNIFICANT WEATHER AND/OR OBSTRUCTIONS TO VISIBILITY.


SDZ001>005-009-010-012>017-191100-
NORTHWEST AND NORTH CENTRAL SOUTH DAKOTA

CITY           SKY/WX    TMP DP  RH WIND       PRES   REMARKS
BUFFALO          N/A     24  17  74 W8        29.47F WCI  15
FAITH            N/A     20  18  92 W6        29.53F WCI  12
MOBRIDGE       CLOUDY    15  10  80 CALM      29.56F
$$

SDZ012>016-024>037-041>051-057-063-072>074-191100-
SOUTHWEST AND SOUTH CENTRAL SOUTH DAKOTA

CITY           SKY/WX    TMP DP  RH WIND       PRES   REMARKS
RAPID CTY ARPT CLEAR     26  19  74 NW3       29.54F
PIERRE         CLOUDY    14  10  84 CALM      29.59S
CUSTER         CLOUDY    33  11  39 CALM      29.58F
ELLSWORTH AFB  CLOUDY    28  19  69 CALM      29.54S
PHILIP         CLOUDY    14  12  92 W6        29.56F WCI   5
PINE RIDGE     CLOUDY    31  21  66 W13       29.58F WCI  21
SPEARFISH      FAIR      34  19  55 CALM      29.56S
WINNER         FAIR      37  30  75 SW8       29.60F
$$

SDZ004>011-016>023-039-040-191100-
NORTHEAST SOUTH DAKOTA

CITY           SKY/WX    TMP DP  RH WIND       PRES   REMARKS
ABERDEEN       FOG       18  14  84 SW6       29.63F VSB 1/4 WCI  10
WATERTOWN      CLOUDY    27  27 100 S6        29.67S FOG     WCI  20
BROOKINGS      CLEAR     34  33  96 S10       29.70  WCI  26
SISSETON         N/A     32  29  88 S6        29.64F WCI  26
$$

SDZ017-020-022-023-036>040-048>070-191100-
SOUTHEAST SOUTH DAKOTA

CITY           SKY/WX    TMP DP  RH WIND       PRES   REMARKS
SIOUX FALLS    CLEAR     37  34  89 S9        29.73F
HURON          CLOUDY    32  31  96 S13       29.65F WCI  22
CHAMBERLAIN    CLOUDY    33  32  94 S9        29.62F WCI  26
MITCHELL       CLEAR     33  32  96 SE10      29.69F WCI  25
YANKTON        CLEAR     36  32  87 E6        29.73R
$$

ABBREVIATIONS USED IN REMARKS
   TC - TEMPERATURE IN CELSIUS
  WCI - WIND CHILL INDEX
   HX - HEAT INDEX
  VSB - VISIBILITY





USA.gov is the U.S. government's official web portal to all federal, state and local government web resources and services.